Погода в Кубе

Россия / Кабардино-Балкарская Республика     43°51′31″N   43°27′12″E
темп.,
°C
ветер,
м/с
пор.,
м/с
влажн.,
%
обл.,
%
осадки,
мм/ч
давл.,
гПа
погр.,
м
6 мая, чт
чт600:00+7ююв12870 0.0 101711
03:00+6ю11870 0.0 101710
06:00+7ююв23860 0.0 1017115
09:00+13вюв56610 0.0 1015662
12:00+16вюв66495 0.0 10141182
15:00+18в554942 0.0 10121289
18:00+15в47627 0.0 1013343
21:00+9вюв2277100 0.0 101524
7 мая, пт
пт700:00+8сз117799 0.0 101511
03:00+7сз007860 0.0 101510
06:00+9сз1178100 0.0 101633
09:00+15ссв226455 0.0 1016483
12:00+19ссв33485 0.0 10161050
15:00+20св324463 0.0 10161620
18:00+17в236297 0.0 101755
21:00+13сз117531 0.0 101911
8 мая, сб
сб800:00+11з22875 0.0 101911
03:00+10юз22842 0.0 101812
06:00+12ююз227627 0.0 101736
09:00+17вюв56595 0.0 1016633
12:00+20вюв555297 0.0 10141239
15:00+21вюв5549100 0.0 10131463
18:00+18в3567100 0.0 1013141
21:00+14юв117286 0.0 101311
9 мая, вс
вс900:00+12юз11790 0.0 101211
03:00+11юз117968 0.0 101011
06:00+12ююв22659 0.0 100837
09:00+18с335760 0.0 1007412
12:00+19ссз7858100 0.0 10091124
15:00+18ссз5667100 0.1 10101174
18:00+7сз121985100 3.9 1015573
21:00+5сз132085100 6.3 1018722
10 мая, пн
пн1000:00+5сз121987100 2.9 10201036
03:00+6зсз111873100 3.5 1021979
06:00+6зсз61266100 0.2 10211009
09:00+9сз71155100 0.2 10201360
12:00+12сз81047100 0.0 10181857
15:00+12сз585399 0.0 10171757
18:00+8сз4980100 1.4 1019867
21:00+7св0289100 3.3 1020128